Flag for Faroe Islands Weather past 2 weeks in Tórshavn, Faroe Islands, Faroe Islands

Now
46 °F

Overcast.


Feels Like: 44 °F
Forecast: 44 / 53 °F
Wind: 5 mph from Northwest

Location: Soervaag / Vagar

Current Time: Jul 30, 2015 at 9:19:39 PM

Latest Report: Jul 30, 2015 at 8:50 PM


Visibility: N/A

Pressure: 29.95 "Hg

Humidity: 71%

Dew point: 37 °F

Location of TórshavnLocation

Historic Weather in Tórshavn — Graph

°F

Tórshavn temperature yesterday

Maximum temperature yesterday: 48 °F (at 2:50 PM)
Minimum temperature yesterday: 43 °F (at 1:50 AM)
Average temperature yesterday: 45 °F

Past Weeks' High & Low Weather Summary

 TemperatureHumidityPressure
High55 °F (Jul 22, 4:50 PM)100% (Jul 16, 1:20 AM)30.12 "Hg (Jul 16, 1:20 AM)
Low43 °F (Jul 29, 1:50 AM)62% (Jul 30, 11:20 AM)29.47 "Hg (Jul 21, 5:50 AM)
Average49 °F82%29.80 "Hg
* Reported Jul 15 8:20 PM — Jul 30 8:20 PM, Tórshavn, Weather by CustomWeather, © 2015

Note: Actual official high and low records may vary slightly from our data, if they occured in-between our weather recording intervals... More about our weather records

Advertising

Tórshavn weather history for previous 24 hours

 ConditionsComfort  
Time TempWeatherWind HumidityBarometerVisibility
8:20 PM
Thu, Jul 30
46 °FOvercast.8 mph71%29.98 "HgN/A
7:50 PM46 °FOvercast.8 mph71%29.98 "HgN/A
7:20 PM48 °FOvercast.7 mph71%29.98 "HgN/A
6:50 PM48 °FOvercast.8 mph66%29.98 "HgN/A
6:20 PM48 °FOvercast.10 mph66%29.98 "HgN/A
5:50 PM48 °FOvercast.8 mph71%29.98 "HgN/A
5:20 PM48 °FOvercast.9 mph66%29.98 "HgN/A
4:50 PM48 °FOvercast.9 mph71%29.98 "HgN/A
4:20 PM48 °FOvercast.8 mph66%29.98 "HgN/A
3:50 PM48 °FOvercast.5 mph66%29.98 "HgN/A
3:20 PM48 °FOvercast.7 mph66%29.98 "HgN/A
2:50 PM48 °FOvercast.5 mph71%30.01 "HgN/A
2:20 PM48 °FOvercast.6 mph71%30.01 "HgN/A
1:50 PM48 °FOvercast.8 mph66%30.01 "HgN/A
1:20 PM46 °FOvercast.7 mph76%30.01 "HgN/A
12:50 PM48 °FOvercast.7 mph66%30.01 "HgN/A
12:20 PM48 °FOvercast.6 mph66%30.01 "HgN/A
11:50 AM48 °FOvercast.7 mph66%30.01 "HgN/A
11:20 AM48 °FOvercast.6 mph62%30.01 "HgN/A
10:50 AM46 °FOvercast.7 mph71%30.01 "HgN/A
10:20 AM46 °FOvercast.7 mph71%30.01 "HgN/A
9:50 AM46 °FOvercast.5 mph76%30.01 "HgN/A
9:20 AM46 °FOvercast.6 mph71%30.01 "HgN/A
8:50 AM46 °FOvercast.5 mph71%30.01 "HgN/A
8:20 AM45 °FOvercast.6 mph76%30.01 "HgN/A
7:50 AM45 °FOvercast.5 mph71%30.01 "HgN/A
7:20 AM45 °FOvercast.8 mph71%30.01 "HgN/A
6:50 AM45 °FOvercast.5 mph76%30.01 "HgN/A
6:20 AM45 °FOvercast.5 mph76%30.01 "HgN/A
5:50 AM45 °FOvercast.3 mph76%30.01 "HgN/A
5:20 AM45 °FOvercast.7 mph76%30.01 "HgN/A
4:50 AM45 °FOvercast.6 mph76%30.01 "HgN/A
4:20 AM45 °FOvercast.9 mph76%30.01 "HgN/A
3:50 AM45 °FOvercast.8 mph71%30.01 "HgN/A
3:20 AM45 °FOvercast.10 mph76%30.01 "HgN/A
2:50 AM45 °FOvercast.9 mph76%30.01 "HgN/A
2:20 AM45 °FOvercast.10 mph76%30.01 "HgN/A
1:50 AM45 °FOvercast.8 mph76%30.01 "HgN/A
1:20 AM45 °FOvercast.7 mph81%30.01 "HgN/A
12:50 AM45 °FOvercast.7 mph81%30.01 "HgN/A
12:20 AM45 °FOvercast.7 mph81%30.01 "HgN/A
11:50 PM
Wed, Jul 29
45 °FOvercast.6 mph76%30.01 "HgN/A
11:20 PM45 °FPartly sunny.9 mph76%30.01 "HgN/A
10:50 PM45 °FSprinkles. Overcast.9 mph81%30.01 "HgN/A
10:20 PM45 °FOvercast.9 mph81%30.01 "HgN/A
9:50 PM45 °FOvercast.10 mph76%30.01 "HgN/A
9:20 PM45 °FOvercast.8 mph76%30.01 "HgN/A
Weather by CustomWeather, © 2015

See weather overviewHow to use our weather pages